EW8832 Weather Reports


Display with metric or nautical units.
time (UTC)temp
F
wind
direction
speed
MPH
gust
MPH
rain 1hr
in
rain 24hr
in
rain mn
in
humidity
%
barometer
mb
20260901013515 87 154 4.0 7.0 0.00 0.00 0.00 43 1011.5
20260901013014 87 161 4.0 7.0 0.00 0.00 0.00 43 1011.4
20260901012515 88 148 4.0 7.0 0.00 0.00 0.00 43 1011.4
20260901012014 88 161 2.0 7.0 0.00 0.00 0.00 42 1011.4
20260901011517 89 161 4.0 10.0 0.00 0.00 0.00 41 1011.3
20260901011014 89 155 5.0 10.0 0.00 0.00 0.00 41 1011.3
20260901010515 90 175 3.0 6.0 0.00 0.00 0.00 40 1011.2
20260901010014 90 178 1.0 3.0 0.00 0.00 0.00 40 1011.1
20260901005615 91 178 1.0 4.0 0.00 0.00 0.00 39 1011.0
20260901005013 91 178 2.0 4.0 0.00 0.00 0.00 38 1011.0
20260901004513 92 173 1.0 5.0 0.00 0.00 0.00 38 1010.9
20260901004012 92 216 0.0 4.0 0.00 0.00 0.00 37 1010.9
20260901003513 93 218 1.0 5.0 0.00 0.00 0.00 36 1010.9
20260901003013 93 221 2.0 5.0 0.00 0.00 0.00 36 1010.9
20260901002513 94 217 2.0 8.0 0.00 0.00 0.00 36 1010.8
20260901002012 94 213 3.0 8.0 0.00 0.00 0.00 35 1010.8
20260901001512 94 211 4.0 8.0 0.00 0.00 0.00 35 1010.7
20260901001011 95 203 2.0 8.0 0.00 0.00 0.00 34 1010.8
20260901000512 95 147 3.0 9.0 0.00 0.00 0.00 34 1010.7
20260901000011 95 213 5.0 9.0 0.00 0.00 0.00 33 1010.8
20260831235611 96 201 4.0 7.0 0.00 0.00 0.00 33 1010.8
20260831235011 96 195 3.0 8.0 0.00 0.00 0.00 33 1010.8
20260831234514 96 223 3.0 8.0 0.00 0.00 0.00 32 1010.9
20260831234011 96 202 4.0 8.0 0.00 0.00 0.00 32 1010.8
20260831233511 96 201 4.0 10.0 0.00 0.00 0.00 32 1010.7
20260831233010 96 200 3.0 10.0 0.00 0.00 0.00 32 1010.8
20260831232510 97 190 7.0 10.0 0.00 0.00 0.00 31 1010.8
20260831232012 97 177 5.0 11.0 0.00 0.00 0.00 30 1010.8
20260831231509 97 223 5.0 11.0 0.00 0.00 0.00 31 1010.8
20260831231010 97 182 6.0 10.0 0.00 0.00 0.00 30 1010.9
20260831230509 97 221 5.0 11.0 0.00 0.00 0.00 31 1010.9
20260831230010 97 231 4.0 10.0 0.00 0.00 0.00 30 1010.9
20260831225608 97 211 3.0 7.0 0.00 0.00 0.00 31 1010.9
20260831225012 97 192 2.0 7.0 0.00 0.00 0.00 31 1010.9
20260831224508 98 220 4.0 9.0 0.00 0.00 0.00 30 1010.9
20260831224009 99 222 4.0 9.0 0.00 0.00 0.00 30 1010.9
20260831223509 99 220 3.0 10.0 0.00 0.00 0.00 29 1010.9
20260831223008 99 237 3.0 10.0 0.00 0.00 0.00 29 1010.9
20260831222510 99 235 5.0 10.0 0.00 0.00 0.00 29 1011.0
20260831222007 99 156 4.0 13.0 0.00 0.00 0.00 29 1011.0
20260831221507 100 202 8.0 13.0 0.00 0.00 0.00 28 1011.0
20260831221008 100 245 3.0 11.0 0.00 0.00 0.00 28 1011.0
20260831220506 99 192 6.0 12.0 0.00 0.00 0.00 29 1011.0
20260831220008 99 188 5.0 12.0 0.00 0.00 0.00 29 1011.0
20260831215605 99 196 2.0 12.0 0.00 0.00 0.00 28 1011.1
20260831215005 99 68 4.0 14.0 0.00 0.00 0.00 28 1011.0
20260831214504 99 126 6.0 14.0 0.00 0.00 0.00 28 1011.1
20260831214002 100 157 7.0 12.0 0.00 0.00 0.00 28 1011.1
20260831213500 100 163 5.0 11.0 0.00 0.00 0.00 28 1011.0
20260831213102 99 227 5.0 13.0 0.00 0.00 0.00 28 1011.1
20260831212559 99 204 7.0 13.0 0.00 0.00 0.00 28 1011.1
20260831212100 99 180 2.0 7.0 0.00 0.00 0.00 29 1011.0
20260831211556 99 331 4.0 9.0 0.00 0.00 0.00 29 1011.1
20260831211054 99 298 4.0 11.0 0.00 0.00 0.00 30 1011.2
20260831210553 99 172 3.0 11.0 0.00 0.00 0.00 31 1011.2
20260831210052 99 133 1.0 11.0 0.00 0.00 0.00 30 1011.4
20260831205551 98 194 6.0 12.0 0.00 0.00 0.00 31 1011.4
20260831205051 98 207 7.0 12.0 0.00 0.00 0.00 31 1011.4
20260831204549 99 171 4.0 11.0 0.00 0.00 0.00 31 1011.5
20260831204048 98 182 4.0 12.0 0.00 0.00 0.00 31 1011.6
20260831203546 98 201 8.0 14.0 0.00 0.00 0.00 31 1011.8
20260831203045 98 220 8.0 14.0 0.00 0.00 0.00 31 1011.7
20260831202544 98 267 5.0 12.0 0.00 0.00 0.00 32 1011.7
20260831202043 98 288 6.0 12.0 0.00 0.00 0.00 30 1011.8
20260831201542 98 267 6.0 12.0 0.00 0.00 0.00 31 1011.9
20260831201041 98 190 6.0 11.0 0.00 0.00 0.00 31 1011.9
20260831200540 98 155 1.0 7.0 0.00 0.00 0.00 32 1011.9
20260831200040 97 242 3.0 9.0 0.00 0.00 0.00 32 1012.0
20260831195540 97 270 3.0 10.0 0.00 0.00 0.00 35 1012.2
20260831195040 96 274 2.0 10.0 0.00 0.00 0.00 35 1012.2
20260831194610 96 223 4.0 10.0 0.00 0.00 0.00 34 1012.4
20260831194040 96 255 6.0 12.0 0.00 0.00 0.00 34 1012.4
20260831193540 97 213 5.0 11.0 0.00 0.00 0.00 34 1012.3
20260831193040 97 240 1.0 10.0 0.00 0.00 0.00 33 1012.4
20260831192540 98 184 4.0 10.0 0.00 0.00 0.00 33 1012.4
20260831192037 97 196 4.0 16.0 0.00 0.00 0.00 33 1012.6
20260831191537 97 104 9.0 16.0 0.00 0.00 0.00 32 1012.6
20260831191039 97 160 5.0 11.0 0.00 0.00 0.00 33 1012.7
20260831190538 97 175 3.0 12.0 0.00 0.00 0.00 32 1012.8
20260831190038 98 167 5.0 19.0 0.00 0.00 0.00 32 1012.8
20260831185538 97 312 1.0 11.0 0.00 0.00 0.00 34 1012.8
20260831185037 97 322 0.0 11.0 0.00 0.00 0.00 33 1012.8
20260831184538 97 236 6.0 11.0 0.00 0.00 0.00 34 1012.9
20260831184033 97 159 4.0 11.0 0.00 0.00 0.00 34 1013.0
20260831183533 96 28 3.0 5.0 0.00 0.00 0.00 34 1013.0
20260831183032 96 31 1.0 8.0 0.00 0.00 0.00 35 1013.1
20260831182532 96 315 3.0 8.0 0.00 0.00 0.00 35 1013.2
20260831182035 96 265 1.0 10.0 0.00 0.00 0.00 36 1013.3
20260831181533 96 242 6.0 10.0 0.00 0.00 0.00 36 1013.4
20260831181032 96 281 5.0 10.0 0.00 0.00 0.00 36 1013.4
20260831180529 95 151 5.0 10.0 0.00 0.00 0.00 37 1013.6
20260831180029 94 234 5.0 11.0 0.00 0.00 0.00 38 1013.6
20260831175528 94 186 2.0 12.0 0.00 0.00 0.00 38 1013.7
20260831175029 94 244 2.0 12.0 0.00 0.00 0.00 38 1013.7
20260831174529 94 279 5.0 14.0 0.00 0.00 0.00 39 1013.8
20260831174029 95 284 9.0 14.0 0.00 0.00 0.00 38 1013.8
20260831173527 95 275 5.0 12.0 0.00 0.00 0.00 38 1014.0
20260831173027 94 256 3.0 12.0 0.00 0.00 0.00 39 1013.9
20260831172526 95 302 3.0 14.0 0.00 0.00 0.00 40 1014.0
20260831172026 94 227 6.0 14.0 0.00 0.00 0.00 40 1014.1
20260831171525 94 320 2.0 10.0 0.00 0.00 0.00 40 1014.1
20260831171028 94 322 6.0 10.0 0.00 0.00 0.00 40 1014.1
20260831170525 93 281 2.0 11.0 0.00 0.00 0.00 42 1014.2
20260831170029 94 294 5.0 11.0 0.00 0.00 0.00 41 1014.3
20260831165523 93 227 5.0 10.0 0.00 0.00 0.00 42 1014.4
20260831165023 93 282 5.0 10.0 0.00 0.00 0.00 42 1014.4
20260831164523 93 247 4.0 10.0 0.00 0.00 0.00 43 1014.4
20260831164022 93 221 4.0 8.0 0.00 0.00 0.00 44 1014.4
20260831163521 92 269 2.0 8.0 0.00 0.00 0.00 45 1014.4
20260831163030 92 272 2.0 10.0 0.00 0.00 0.00 45 1014.4
20260831162524 92 309 4.0 10.0 0.00 0.00 0.00 45 1014.4
20260831162019 92 225 4.0 10.0 0.00 0.00 0.00 45 1014.4
20260831161517 92 221 5.0 13.0 0.00 0.00 0.00 46 1014.4
20260831161021 91 165 6.0 13.0 0.00 0.00 0.00 46 1014.4
20260831160515 91 207 4.0 11.0 0.00 0.00 0.00 46 1014.4
20260831160014 91 159 5.0 12.0 0.00 0.00 0.00 47 1014.3
20260831155513 91 297 4.0 10.0 0.00 0.00 0.00 48 1014.3
20260831155014 91 198 4.0 14.0 0.00 0.00 0.00 47 1014.3
20260831154515 90 194 4.0 14.0 0.00 0.00 0.00 47 1014.3
20260831154012 90 207 7.0 11.0 0.00 0.00 0.00 48 1014.3
20260831153510 90 245 3.0 12.0 0.00 0.00 0.00 48 1014.3
20260831153017 89 202 4.0 9.0 0.00 0.00 0.00 50 1014.3
20260831152508 89 202 4.0 12.0 0.00 0.00 0.00 50 1014.3
20260831152008 89 267 6.0 12.0 0.00 0.00 0.00 50 1014.3
20260831151508 89 242 5.0 10.0 0.00 0.00 0.00 50 1014.4
20260831151006 88 169 5.0 11.0 0.00 0.00 0.00 51 1014.4
20260831150505 88 196 5.0 11.0 0.00 0.00 0.00 51 1014.3
20260831150004 88 175 7.0 13.0 0.00 0.00 0.00 52 1014.2
20260831145502 87 207 5.0 13.0 0.00 0.00 0.00 54 1014.3
20260831145002 87 224 4.0 13.0 0.00 0.00 0.00 54 1014.3
20260831144501 87 219 5.0 12.0 0.00 0.00 0.00 55 1014.2
20260831144101 86 209 6.0 13.0 0.00 0.00 0.00 55 1014.2
20260831143600 86 229 6.0 13.0 0.00 0.00 0.00 55 1014.2
20260831143112 86 210 4.0 10.0 0.00 0.00 0.00 56 1014.2
20260831142559 85 229 3.0 10.0 0.00 0.00 0.00 57 1014.2
20260831142055 85 184 5.0 10.0 0.00 0.00 0.00 58 1014.3
20260831141613 84 172 4.0 10.0 0.00 0.00 0.00 58 1014.4
20260831141054 84 204 4.0 10.0 0.00 0.00 0.00 59 1014.4
20260831140553 84 171 4.0 9.0 0.00 0.00 0.00 59 1014.4
20260831140056 83 185 5.0 9.0 0.00 0.00 0.00 60 1014.4
20260831135551 83 205 3.0 7.0 0.00 0.00 0.00 61 1014.3
20260831134559 82 180 2.0 8.0 0.00 0.00 0.00 62 1014.3
20260831134049 82 193 4.0 8.0 0.00 0.00 0.00 62 1014.2
20260831133548 81 173 5.0 7.0 0.00 0.00 0.00 62 1014.1
20260831133049 81 180 1.0 4.0 0.00 0.00 0.00 63 1014.1
20260831132548 80 141 1.0 3.0 0.00 0.00 0.00 64 1014.0
20260831132048 80 140 0.0 3.0 0.00 0.00 0.00 64 1014.0
20260831131546 80 142 1.0 3.0 0.00 0.00 0.00 65 1014.0
20260831131045 79 147 1.0 4.0 0.00 0.00 0.00 65 1013.8
20260831130544 79 147 1.0 4.0 0.00 0.00 0.00 66 1013.7
20260831130052 79 169 2.0 4.0 0.00 0.00 0.00 66 1013.7
20260831125544 78 171 0.0 2.0 0.00 0.00 0.00 66 1013.7
20260831124542 78 171 0.0 0.0 0.00 0.00 0.00 67 1013.7
20260831124041 77 171 0.0 0.0 0.00 0.00 0.00 68 1013.6
20260831123540 77 171 0.0 0.0 0.00 0.00 0.00 68 1013.5
20260831123040 76 171 0.0 0.0 0.00 0.00 0.00 69 1013.5
20260831122541 76 171 0.0 0.0 0.00 0.00 0.00 70 1013.3
20260831122039 75 171 0.0 0.0 0.00 0.00 0.00 70 1013.2
20260831121538 75 171 0.0 0.0 0.00 0.00 0.00 71 1013.2
20260831121038 75 171 0.0 0.0 0.00 0.00 0.00 71 1013.2
20260831120537 74 171 0.0 0.0 0.00 0.00 0.00 71 1013.2
20260831120037 74 171 0.0 1.0 0.00 0.00 0.00 70 1013.2
20260831115535 75 171 0.0 3.0 0.00 0.00 0.00 69 1013.1
20260831114540 75 171 0.0 3.0 0.00 0.00 0.00 68 1013.0
20260831114038 76 171 2.0 4.0 0.00 0.00 0.00 67 1012.9
20260831113533 76 171 2.0 5.0 0.00 0.00 0.00 67 1012.8
20260831113033 76 171 2.0 5.0 0.00 0.00 0.00 67 1012.7
20260831112531 76 173 3.0 6.0 0.00 0.00 0.00 67 1012.7
20260831112031 77 163 3.0 7.0 0.00 0.00 0.00 66 1012.7
20260831111530 77 167 4.0 7.0 0.00 0.00 0.00 66 1012.7
20260831111032 77 142 3.0 5.0 0.00 0.00 0.00 66 1012.6
20260831110530 77 171 3.0 5.0 0.00 0.00 0.00 65 1012.6
20260831110034 77 178 3.0 6.0 0.00 0.00 0.00 65 1012.6
20260831105529 77 176 3.0 7.0 0.00 0.00 0.00 64 1012.7
20260831104529 78 186 4.0 7.0 0.00 0.00 0.00 64 1012.6
20260831104028 78 188 4.0 7.0 0.00 0.00 0.00 64 1012.5
20260831103528 78 184 2.0 8.0 0.00 0.00 0.00 63 1012.5
20260831103027 78 173 4.0 9.0 0.00 0.00 0.00 63 1012.5
20260831102527 78 179 4.0 9.0 0.00 0.00 0.00 63 1012.5
20260831102031 78 180 4.0 9.0 0.00 0.00 0.00 62 1012.5
20260831101530 78 175 5.0 8.0 0.00 0.00 0.00 62 1012.4
20260831101030 78 177 5.0 12.0 0.00 0.00 0.00 62 1012.4
20260831100526 78 174 6.0 12.0 0.00 0.00 0.00 62 1012.4
20260831100026 78 183 5.0 10.0 0.00 0.00 0.00 63 1012.5
20260831095526 77 168 5.0 10.0 0.00 0.00 0.00 64 1012.5
20260831094527 77 201 3.0 7.0 0.00 0.00 0.00 64 1012.4
20260831094025 77 188 3.0 7.0 0.00 0.00 0.00 64 1012.4
20260831093525 77 183 3.0 6.0 0.00 0.00 0.00 64 1012.3
20260831093025 77 194 3.0 6.0 0.00 0.00 0.00 63 1012.3
20260831092523 77 179 3.0 6.0 0.00 0.00 0.00 63 1012.2
20260831092023 77 189 3.0 6.0 0.00 0.00 0.00 62 1012.3
20260831091522 77 184 2.0 4.0 0.00 0.00 0.00 62 1012.2
20260831091026 78 182 2.0 5.0 0.00 0.00 0.00 62 1012.2
20260831090520 78 181 3.0 5.0 0.00 0.00 0.00 61 1012.2
20260831090024 78 181 3.0 5.0 0.00 0.00 0.00 61 1012.1
20260831085519 79 197 2.0 5.0 0.00 0.00 0.00 60 1012.1
20260831084518 79 167 3.0 5.0 0.00 0.00 0.00 59 1012.1
20260831084017 79 171 3.0 5.0 0.00 0.00 0.00 59 1012.1
20260831083517 79 179 3.0 7.0 0.00 0.00 0.00 58 1012.1
20260831083017 79 165 5.0 7.0 0.00 0.00 0.00 58 1011.9
20260831082516 79 169 4.0 8.0 0.00 0.00 0.00 58 1012.0
20260831082016 80 177 3.0 7.0 0.00 0.00 0.00 57 1011.9
20260831081516 80 180 3.0 7.0 0.00 0.00 0.00 57 1011.9
20260831081016 80 174 5.0 9.0 0.00 0.00 0.00 56 1011.9
20260831080515 80 164 5.0 11.0 0.00 0.00 0.00 56 1011.9
20260831080014 80 178 6.0 11.0 0.00 0.00 0.00 55 1011.8
20260831075514 80 167 6.0 9.0 0.00 0.00 0.00 55 1011.8
20260831074512 80 153 6.0 9.0 0.00 0.00 0.00 55 1011.7
20260831074011 80 155 6.0 11.0 0.00 0.00 0.00 55 1011.8
20260831073513 80 160 5.0 8.0 0.00 0.00 0.00 55 1011.9
20260831073020 80 161 4.0 8.0 0.00 0.00 0.00 55 1012.0
20260831072508 79 153 4.0 8.0 0.00 0.00 0.00 55 1012.0
20260831072008 79 171 3.0 8.0 0.00 0.00 0.00 55 1012.1
20260831071508 79 177 4.0 8.0 0.00 0.00 0.00 55 1012.1
20260831071007 79 202 2.0 5.0 0.00 0.00 0.00 54 1012.1
20260831070506 79 194 2.0 6.0 0.00 0.00 0.00 53 1012.1
20260831070006 80 179 2.0 7.0 0.00 0.00 0.00 53 1012.1
20260831065507 80 163 4.0 8.0 0.00 0.00 0.00 52 1012.0
20260831064507 80 164 3.0 6.0 0.00 0.00 0.00 52 1012.1
20260831064004 80 159 4.0 8.0 0.00 0.00 0.00 51 1012.1
20260831063504 81 163 5.0 9.0 0.00 0.00 0.00 51 1012.1
20260831063012 81 167 5.0 9.0 0.00 0.00 0.00 51 1012.2
20260831062504 81 176 5.0 9.0 0.00 0.00 0.00 51 1012.3
20260831062006 81 176 5.0 9.0 0.00 0.00 0.00 50 1012.3
20260831061504 81 165 6.0 8.0 0.00 0.00 0.00 50 1012.2
20260831061004 81 155 6.0 9.0 0.00 0.00 0.00 50 1012.2
20260831060506 80 159 6.0 10.0 0.00 0.00 0.00 51 1012.2
20260831060004 80 140 5.0 9.0 0.00 0.00 0.00 51 1012.2
20260831055503 80 145 4.0 8.0 0.00 0.00 0.00 50 1012.3
20260831054506 81 165 4.0 7.0 0.00 0.00 0.00 50 1012.3
20260831054100 81 173 4.0 7.0 0.00 0.00 0.00 49 1012.1
20260831053600 81 184 3.0 6.0 0.00 0.00 0.00 49 1012.1
20260831053059 81 171 4.0 8.0 0.00 0.00 0.00 49 1012.1
20260831052558 82 155 5.0 11.0 0.00 0.00 0.00 48 1012.1
20260831052057 82 170 5.0 12.0 0.00 0.00 0.00 48 1012.0
20260831051615 82 150 5.0 12.0 0.00 0.00 0.00 48 1012.0
20260831051056 82 160 6.0 9.0 0.00 0.00 0.00 48 1012.0
20260831050556 82 157 5.0 9.0 0.00 0.00 0.00 48 1012.0
20260831050056 82 173 5.0 11.0 0.00 0.00 0.00 48 1012.0
20260831045554 82 162 5.0 11.0 0.00 0.00 0.00 48 1012.0
20260831044554 83 173 8.0 12.0 0.00 0.00 0.00 48 1011.9
20260831044055 82 151 7.0 10.0 0.00 0.00 0.00 48 1011.9
20260831043553 82 157 6.0 9.0 0.00 0.00 0.00 49 1011.9
20260831043056 82 166 6.0 8.0 0.00 0.00 0.00 50 1011.8
20260831042554 82 170 5.0 9.0 0.00 0.00 0.00 50 1011.8
20260831042053 82 178 5.0 9.0 0.00 0.00 0.00 50 1011.9
20260831041600 82 161 5.0 9.0 0.00 0.00 0.00 50 1011.9
20260831041053 83 167 5.0 9.0 0.00 0.00 0.00 51 1011.9
20260831040553 83 168 6.0 10.0 0.00 0.00 0.00 51 1011.8
20260831040054 83 151 5.0 10.0 0.00 0.00 0.00 51 1011.9
20260831035553 83 152 6.0 9.0 0.00 0.00 0.00 51 1011.8
20260831034553 83 173 9.0 17.0 0.00 0.00 0.00 51 1011.7
20260831034053 83 165 5.0 9.0 0.00 0.00 0.00 51 1011.7
20260831033552 84 159 5.0 10.0 0.00 0.00 0.00 51 1011.6
20260831033053 84 157 6.0 12.0 0.00 0.00 0.00 50 1011.6
20260831032552 84 165 6.0 12.0 0.00 0.00 0.00 50 1011.6
20260831032055 84 153 7.0 12.0 0.00 0.00 0.00 49 1011.5
20260831031551 85 139 7.0 15.0 0.00 0.00 0.00 49 1011.4
20260831031051 85 149 8.0 12.0 0.00 0.00 0.00 49 1011.5
20260831030552 85 145 7.0 13.0 0.00 0.00 0.00 49 1011.5
20260831030108 85 150 8.0 16.0 0.00 0.00 0.00 48 1011.4
20260831025551 85 148 7.0 13.0 0.00 0.00 0.00 48 1011.3
20260831024621 86 148 9.0 17.0 0.00 0.00 0.00 47 1011.2
20260831024051 86 159 9.0 14.0 0.00 0.00 0.00 47 1011.2
20260831023550 86 154 7.0 14.0 0.00 0.00 0.00 47 1011.1
20260831023050 86 142 8.0 14.0 0.00 0.00 0.00 46 1011.1
20260831022550 86 152 9.0 15.0 0.00 0.00 0.00 46 1011.1
20260831022050 86 123 11.0 15.0 0.00 0.00 0.00 46 1011.0
20260831021550 86 161 6.0 12.0 0.00 0.00 0.00 45 1011.0
20260831021050 86 136 7.0 12.0 0.00 0.00 0.00 45 1010.9
20260831020550 86 151 7.0 10.0 0.00 0.00 0.00 45 1010.9
20260831020050 86 161 5.0 8.0 0.00 0.00 0.00 45 1010.7
20260831015549 86 163 4.0 9.0 0.00 0.00 0.00 44 1010.7
20260831014550 85 170 6.0 8.0 0.00 0.00 0.00 44 1010.6
20260831014050 86 153 3.0 6.0 0.00 0.00 0.00 44 1010.6